When you browse on this site, cookies collect data to enhance your experience and personalize the content and advertising you see.
Visit our Privacy Policy to learn more. By continuing to use the site, you agree to this use of cookies and data.

Météo par heure à Touying

Ce jour, 10 Juillet, Vendredi

Heure Température Précipitation Vent Pression Humidité
00:00 +23°C° 0 mm 1 m/s 751 mmHg 78%
01:00 +23°C° 0 mm 1 m/s 751 mmHg 78%
02:00 +21°C° 0 mm 0 m/s 751 mmHg 77%
03:00 +20°C° 0 mm 0 m/s 751 mmHg 78%
04:00 +20°C° 0 mm 0 m/s 751 mmHg 79%
05:00 +20°C° 0 mm 0 m/s 751 mmHg 80%
06:00 +23°C° 0 mm 1 m/s 751 mmHg 73%
07:00 +24°C° 0 mm 1 m/s 751 mmHg 67%
08:00 +26°C° 0 mm 2 m/s 751 mmHg 61%
09:00 +27°C° 0 mm 2 m/s 751 mmHg 56%
10:00 +29°C° 0 mm 2 m/s 751 mmHg 50%
11:00 +30°C° 0 mm 3 m/s 751 mmHg 45%
12:00 +31°C° 0 mm 2 m/s 751 mmHg 44%
13:00 +31°C° 0 mm 2 m/s 751 mmHg 44%
14:00 +30°C° 0 mm 2 m/s 751 mmHg 48%
15:00 +31°C° 0 mm 2 m/s 751 mmHg 48%
16:00 +31°C° 0 mm 3 m/s 751 mmHg 48%
17:00 +31°C° 0 mm 3 m/s 750 mmHg 48%
18:00 +30°C° 0 mm 3 m/s 750 mmHg 52%
19:00 +29°C° 0 mm 2 m/s 751 mmHg 57%
20:00 +27°C° 0 mm 2 m/s 751 mmHg 62%
21:00 +26°C° 0.1 mm 2 m/s 751 mmHg 66%
22:00 +26°C° 0.1 mm 1 m/s 752 mmHg 70%
23:00 +25°C° 0.1 mm 1 m/s 752 mmHg 74%

Demain, 11 Juillet, Samedi

Heure Température Précipitation Vent Pression Humidité
00:00 +24°C° 0 mm 1 m/s 752 mmHg 75%
01:00 +24°C° 0 mm 1 m/s 752 mmHg 77%
02:00 +24°C° 0 mm 2 m/s 752 mmHg 78%
03:00 +24°C° 0 mm 2 m/s 752 mmHg 77%
04:00 +24°C° 0 mm 2 m/s 752 mmHg 76%
05:00 +24°C° 0 mm 2 m/s 752 mmHg 76%
06:00 +25°C° 0 mm 2 m/s 752 mmHg 72%
07:00 +26°C° 0 mm 2 m/s 752 mmHg 67%
08:00 +27°C° 0 mm 2 m/s 752 mmHg 63%
09:00 +28°C° 0 mm 2 m/s 752 mmHg 60%
10:00 +30°C° 0 mm 2 m/s 753 mmHg 56%
11:00 +31°C° 0 mm 2 m/s 753 mmHg 52%
12:00 +32°C° 0 mm 2 m/s 752 mmHg 51%
13:00 +32°C° 0 mm 2 m/s 752 mmHg 50%
14:00 +33°C° 0 mm 1 m/s 752 mmHg 49%
15:00 +34°C° 0 mm 2 m/s 752 mmHg 48%
16:00 +35°C° 0 mm 3 m/s 752 mmHg 47%
17:00 +35°C° 0 mm 4 m/s 752 mmHg 45%
18:00 +33°C° 0.2 mm 4 m/s 752 mmHg 54%
19:00 +30°C° 0.2 mm 3 m/s 752 mmHg 62%
20:00 +28°C° 0.2 mm 3 m/s 752 mmHg 70%
21:00 +27°C° 0.3 mm 3 m/s 753 mmHg 74%
22:00 +26°C° 0.3 mm 3 m/s 753 mmHg 77%
23:00 +25°C° 0.3 mm 3 m/s 754 mmHg 81%

Après-demain, 12 Juillet, Dimanche

Heure Température Précipitation Vent Pression Humidité
00:00 +25°C° 0.9 mm 3 m/s 753 mmHg 83%
01:00 +24°C° 0.9 mm 3 m/s 753 mmHg 85%
02:00 +24°C° 0.9 mm 3 m/s 753 mmHg 87%
03:00 +22°C° 0.4 mm 3 m/s 753 mmHg 87%
04:00 +22°C° 0.4 mm 3 m/s 753 mmHg 86%
05:00 +22°C° 0.4 mm 3 m/s 753 mmHg 86%
06:00 +24°C° 0.1 mm 3 m/s 753 mmHg 82%
07:00 +25°C° 0.1 mm 3 m/s 753 mmHg 78%
08:00 +26°C° 0.1 mm 3 m/s 753 mmHg 74%
09:00 +28°C° 0.3 mm 3 m/s 753 mmHg 69%
10:00 +29°C° 0.3 mm 4 m/s 753 mmHg 63%
11:00 +32°C° 0.3 mm 4 m/s 753 mmHg 58%
12:00 +33°C° 0.5 mm 4 m/s 753 mmHg 55%
13:00 +33°C° 0.5 mm 3 m/s 752 mmHg 53%
14:00 +34°C° 0.5 mm 3 m/s 752 mmHg 50%
15:00 +33°C° 1.1 mm 3 m/s 752 mmHg 57%
16:00 +30°C° 1.1 mm 3 m/s 752 mmHg 64%
17:00 +29°C° 1.1 mm 3 m/s 752 mmHg 72%
18:00 +28°C° 0.8 mm 3 m/s 752 mmHg 75%
19:00 +27°C° 0.8 mm 2 m/s 752 mmHg 78%
20:00 +26°C° 0.8 mm 2 m/s 752 mmHg 81%
21:00 +25°C° 0.2 mm 2 m/s 753 mmHg 84%
22:00 +25°C° 0.2 mm 2 m/s 753 mmHg 86%
23:00 +24°C° 0.2 mm 2 m/s 753 mmHg 89%

13 Juillet, Lundi

Heure Température Précipitation Vent Pression Humidité
00:00 +24°C° 0.3 mm 2 m/s 753 mmHg 90%
01:00 +24°C° 0.3 mm 2 m/s 753 mmHg 90%
02:00 +23°C° 0.3 mm 2 m/s 753 mmHg 91%
03:00 +23°C° 0 mm 2 m/s 753 mmHg 91%
04:00 +23°C° 0 mm 2 m/s 753 mmHg 90%
05:00 +23°C° 0 mm 2 m/s 753 mmHg 89%
06:00 +24°C° 0.1 mm 2 m/s 753 mmHg 85%
07:00 +25°C° 0.1 mm 2 m/s 753 mmHg 81%
08:00 +26°C° 0.1 mm 2 m/s 753 mmHg 76%
09:00 +26°C° 0.2 mm 2 m/s 754 mmHg 74%
10:00 +27°C° 0.2 mm 2 m/s 754 mmHg 72%
11:00 +27°C° 0.2 mm 2 m/s 754 mmHg 70%
12:00 +27°C° 0.5 mm 2 m/s 754 mmHg 73%
13:00 +26°C° 0.5 mm 2 m/s 754 mmHg 76%
14:00 +25°C° 0.5 mm 2 m/s 753 mmHg 80%
15:00 +25°C° 0.3 mm 1 m/s 753 mmHg 82%
16:00 +25°C° 0.3 mm 1 m/s 753 mmHg 85%
17:00 +24°C° 0.3 mm 1 m/s 753 mmHg 88%
18:00 +24°C° 0.1 mm 1 m/s 754 mmHg 88%
19:00 +24°C° 0.1 mm 1 m/s 754 mmHg 89%
20:00 +23°C° 0.1 mm 1 m/s 754 mmHg 90%
21:00 +23°C° 0 mm 1 m/s 754 mmHg 89%
22:00 +21°C° 0 mm 0 m/s 755 mmHg 89%
23:00 +21°C° 0 mm 0 m/s 755 mmHg 89%

14 Juillet, Mardi

Heure Température Précipitation Vent Pression Humidité
00:00 +21°C° 0 mm 0 m/s 755 mmHg 89%
01:00 +20°C° 0 mm 0 m/s 755 mmHg 90%
02:00 +22°C° 0 mm 1 m/s 754 mmHg 90%
03:00 +22°C° 0 mm 1 m/s 754 mmHg 91%
04:00 +22°C° 0 mm 1 m/s 754 mmHg 91%
05:00 +21°C° 0 mm 1 m/s 754 mmHg 92%
06:00 +23°C° 0 mm 1 m/s 754 mmHg 86%
07:00 +25°C° 0 mm 1 m/s 755 mmHg 79%
08:00 +26°C° 0 mm 1 m/s 755 mmHg 73%
09:00 +28°C° 0 mm 1 m/s 755 mmHg 66%
10:00 +29°C° 0 mm 2 m/s 754 mmHg 58%
11:00 +31°C° 0 mm 2 m/s 754 mmHg 51%
12:00 +32°C° 0 mm 2 m/s 753 mmHg 47%
13:00 +34°C° 0 mm 2 m/s 753 mmHg 44%
14:00 +35°C° 0 mm 3 m/s 752 mmHg 40%
15:00 +34°C° 0 mm 3 m/s 752 mmHg 41%
16:00 +34°C° 0 mm 3 m/s 752 mmHg 41%
17:00 +34°C° 0 mm 3 m/s 751 mmHg 42%
18:00 +31°C° 0 mm 3 m/s 752 mmHg 47%
19:00 +29°C° 0 mm 2 m/s 752 mmHg 53%
20:00 +28°C° 0 mm 2 m/s 753 mmHg 58%
21:00 +27°C° 0 mm 2 m/s 753 mmHg 61%
22:00 +26°C° 0 mm 2 m/s 753 mmHg 63%
23:00 +25°C° 0 mm 2 m/s 753 mmHg 66%

15 Juillet, Mercredi

Heure Température Précipitation Vent Pression Humidité
00:00 +24°C° 0 mm 2 m/s 753 mmHg 69%
01:00 +24°C° 0 mm 2 m/s 753 mmHg 72%
02:00 +23°C° 0 mm 2 m/s 753 mmHg 76%
03:00 +23°C° 0 mm 2 m/s 753 mmHg 77%
04:00 +23°C° 0 mm 1 m/s 753 mmHg 79%
05:00 +22°C° 0 mm 1 m/s 753 mmHg 81%
06:00 +24°C° 0 mm 1 m/s 753 mmHg 75%
07:00 +26°C° 0 mm 1 m/s 753 mmHg 69%
08:00 +27°C° 0 mm 1 m/s 753 mmHg 62%
09:00 +29°C° 0 mm 1 m/s 753 mmHg 57%
10:00 +30°C° 0 mm 2 m/s 753 mmHg 52%
11:00 +32°C° 0 mm 2 m/s 752 mmHg 46%
12:00 +33°C° 0.1 mm 3 m/s 752 mmHg 44%
13:00 +34°C° 0.1 mm 3 m/s 752 mmHg 43%
14:00 +35°C° 0.1 mm 3 m/s 752 mmHg 41%
15:00 +34°C° 0 mm 3 m/s 751 mmHg 43%
16:00 +33°C° 0 mm 3 m/s 751 mmHg 46%
17:00 +33°C° 0 mm 3 m/s 751 mmHg 48%
18:00 +30°C° 0 mm 3 m/s 751 mmHg 54%
19:00 +29°C° 0 mm 3 m/s 751 mmHg 59%
20:00 +27°C° 0 mm 2 m/s 752 mmHg 64%
21:00 +26°C° 0 mm 1 m/s 752 mmHg 66%
22:00 +25°C° 0 mm 1 m/s 752 mmHg 68%
23:00 +23°C° 0 mm 0 m/s 753 mmHg 70%
Voir plus